This is the latest recevied weather packets stored in our database for station/object KE5VT. If no packets are shown the sender has not sent any weather packets the latest 10 day(s).
| Time | Temp. | Humidity | Pressure | Rain* | Wind** | Luminosity | Snow |
|---|---|---|---|---|---|---|---|
| 1777914912 | 23.89° C | 31% | 1012.5 hPa | 0 mm | - | 695 W/m² | - |
| 1777914609 | 22.78° C | 31% | 1012.5 hPa | 0 mm | - | 772 W/m² | - |
| 1777914304 | 25° C | 31% | 1012.5 hPa | 0 mm | - | 681 W/m² | - |
| 1777914002 | 24.44° C | 32% | 1012.7 hPa | 0 mm | - | 753 W/m² | - |
| 1777913698 | 23.89° C | 33% | 1012.9 hPa | 0 mm | - | 716 W/m² | - |
| 1777913395 | 22.78° C | 33% | 1012.9 hPa | 0 mm | - | 738 W/m² | - |
| 1777913092 | 22.78° C | 33% | 1012.9 hPa | 0 mm | - | 737 W/m² | - |
| 1777912788 | 22.22° C | 36% | 1012.9 hPa | 0 mm | - | 742 W/m² | - |
| 1777912484 | 23.33° C | 39% | 1013 hPa | 0 mm | - | 733 W/m² | - |
| 1777912181 | 23.33° C | 34% | 1013.2 hPa | 0 mm | - | 730 W/m² | - |
| 1777911877 | 22.22° C | 36% | 1013.3 hPa | 0 mm | - | 719 W/m² | - |
| 1777911573 | 22.78° C | 37% | 1013.3 hPa | 0 mm | - | 677 W/m² | - |
| 1777911269 | 22.22° C | 37% | 1013.6 hPa | 0 mm | - | 703 W/m² | - |
| 1777910967 | 21.67° C | 40% | 1013.6 hPa | 0 mm | - | 710 W/m² | - |
| 1777910665 | 21.11° C | 40% | 1013.7 hPa | 0 mm | - | 702 W/m² | - |
| 1777910361 | 21.11° C | 38% | 1013.7 hPa | 0 mm | - | 699 W/m² | - |
| 1777910058 | 20.56° C | 40% | 1013.6 hPa | 0 mm | - | 688 W/m² | - |
| 1777909755 | 20.56° C | 42% | 1013.7 hPa | 0 mm | - | 680 W/m² | - |
| 1777909451 | 20° C | 42% | 1013.5 hPa | 0 mm | - | 672 W/m² | - |
| 1777909150 | 20.56° C | 42% | 1013.5 hPa | 0 mm | - | 523 W/m² | - |
| 1777908848 | 20° C | 43% | 1013.7 hPa | 0 mm | - | 339 W/m² | - |
| 1777908544 | 20° C | 47% | 1013.6 hPa | 0 mm | - | 104 W/m² | - |
| 1777908241 | 18.89° C | 45% | 1013.6 hPa | 0 mm | - | 57 W/m² | - |
| 1777907938 | 18.89° C | 45% | 1013.7 hPa | 0 mm | - | 60 W/m² | - |
| 1777907633 | 18.89° C | 48% | 1013.7 hPa | 0 mm | - | 57 W/m² | - |
* Rain latest hour (hover to see other rain measurements)
** Current wind speed in m/s (hover to see current wind gust speed)